一网星座-0556星 (ONEWEB-0556)

导读

ONEWEB-0556是英国OneWeb公司的低地球轨道宽带通信卫星,属于OneWeb全球卫星互联网星座组网卫星,于2023年3月9日由SpaceX猎鹰9号火箭从美国卡纳维拉尔角发射入轨,属于OneWeb第17次发射任务的40颗卫星之一。该卫星由空中客车建造,搭载透明转发器,配备Ku波段服务链路与Ka波段馈线链路,为全球提供宽带互联网接入服务,支撑OneWeb星座实现全球覆盖,推动卫星通信与地面网络融合发展。

基本信息
目录编号:
55798
目录名称:
ONEWEB-0556
国际标识:
2023-029C
轨道中心:
EARTH
卫星名称:
一网星座-0556星
卫星全名:
一网星座-0556星 (ONEWEB-0556)
卫星状态:
在轨 (已飞行1283 天)
发射日期:
2023-03-09 UTC
国别 :
英国 (GB)
星等 :
--
该卫星已列入 空间交会检测服务 Space Conjunction Data Service (SCDS) ,当前飞行风险评估等级: 无高风险
轨道信息
数据来源 国际轨道数据 AOE轨道数据
星历时间 2026-09-12T02:00:57+0800
9小时前
查看轨道信息
2026-09-06T23:00:00+0800
5天前
查看轨道信息
半长轴 7559.912km 7559.903km
偏心率 0.0002865 0.0002801
轨道倾角 87.913° 87.913°
近地点辐角 92.081° 99.430°
升交点赤经 257.193° 258.216°
平近点角 268.065° 23.336°
近地点 1179.609km 1179.648km
远地点 1183.941km 1183.884km
周期 109.027分钟 109.027分钟
每日圈数 13.207715 13.207739
详细信息
平衡模式:
三轴稳定
覆盖范围:
全球
运营商:
一网卫星公司
运营商所在国:
英国
制造商(研发单位):
一网卫星公司
制造商所在国:
英国
使用方式:
暂无
卫星简介
OneWeb卫星网络由648颗重约125公斤的微型卫星组成,运行在1200公里的轨道上。 每颗卫星都能够提供至少每秒8千兆位的吞吐量,以使用其高吞吐量的Ku频段有效载荷为家庭和移动平台提供互联网接入。该卫星仍在工作。
2D轨道图
3D轨道图
轨道高度分析图
轨道倾角分析图
轨道综合分析图
查看轨道综合分析图
与全量物体交会距离演化趋势
与全量物体交会风险概率演化趋势